Change the Weather History Date:

Saturday, October 8, 2011

  Actual Average (KDTW) Record (KDTW)
Temperature  
Mean Temperature 64 °F 55 °F  
Max Temperature 73 °F 65 °F 90 °F (2007)
Min Temperature 55 °F 46 °F 25 °F (1889)
Degree Days  
Heating Degree Days 1 10  
Month to date heating degree days 73  
Since 1 July heating degree days 187  
Cooling Degree Days 0 0  
Month to date cooling degree days 7  
Year to date cooling degree days 802  
Growing Degree Days 14 (Base 50)    
Moisture  
Dew Point 57 °F    
Average Humidity 80    
Maximum Humidity 94    
Minimum Humidity 57    
Precipitation  
Precipitation 0.00 in 0.08 in 1.02 in (1967)
Month to date precipitation 0.69  
Year to date precipitation 26.39  
Snow  
Snow 0.00 in 0.00 in T in (2000)
Month to date snowfall 0.0  
Since 1 July snowfall 0.0  
Since 1 September snowfall 0.0  
Snow Depth -    
Sea Level Pressure  
Sea Level Pressure 30.38 in    
Wind  
Wind Speed 2 mph (SSE)    
Max Wind Speed 7 mph    
Max Gust Speed -    
Visibility 7 miles    
Events      
T = Trace of Precipitation, MM = Missing Value Source: NWS Daily Summary

Daily Weather History Graph

Daily Weather History Graph

Search for Another Location

Airport or City:

Trip Planner

Search our weather history database for the weather conditions in past years. The results will help you decide how hot, cold, wet, or windy it might be!

Date:

Astronomy

Oct. 08, 2011 Rise Set
Actual Time 7:37 AM EDT 7:02 PM EDT
Civil Twilight 7:09 AM EDT 7:30 PM EDT
Nautical Twilight 6:36 AM EDT 8:03 PM EDT
Astronomical Twilight 6:04 AM EDT 8:35 PM EDT
Moon 5:14 PM EDT (10/8) 4:20 AM EDT (10/8)
Length of Visible Light 12h 21m
Length of Day
11h 25m
Waxing Gibbous, 90% of the Moon is Illuminated
Oct 8
Waxing Gibbous
Oct 11
Full
Oct 19
Last Quarter
Oct 26
New
Nov 2
First Quarter

Hourly Weather History & Observations

Time (EDT) Temp. Dew Point Humidity Pressure Visibility Wind Dir Wind Speed Gust Speed Precip Events Conditions
12:14 AM 55.4 °F 53.6 °F 94% 30.37 in 4.0 mi Calm Calm - N/A   Clear
12:34 AM 57.2 °F 55.4 °F 94% 30.36 in 5.0 mi Calm Calm - N/A   Clear
12:54 AM 57.2 °F 55.4 °F 94% 30.36 in 1.8 mi Calm Calm - N/A   Mist
1:14 AM 55.4 °F 53.6 °F 94% 30.35 in 4.0 mi Calm Calm - N/A   Clear
1:34 AM 57.2 °F 55.4 °F 94% 30.36 in 7.0 mi Calm Calm - N/A   Clear
1:54 AM 57.2 °F 55.4 °F 94% 30.35 in 5.0 mi Calm Calm - N/A   Clear
2:14 AM 57.2 °F 55.4 °F 94% 30.35 in 7.0 mi Calm Calm - N/A   Clear
2:35 AM 59.0 °F 55.4 °F 88% 30.35 in 7.0 mi Calm Calm - N/A   Clear
2:54 AM 60.8 °F 57.2 °F 88% 30.35 in 7.0 mi SSE 5.8 mph - N/A   Clear
3:14 AM 62.6 °F 59.0 °F 88% 30.35 in 7.0 mi South 4.6 mph - N/A   Clear
3:34 AM 62.6 °F 57.2 °F 82% 30.35 in 7.0 mi SSE 4.6 mph - N/A   Clear
3:54 AM 60.8 °F 57.2 °F 88% 30.35 in 5.0 mi SSE 3.5 mph - N/A   Clear
4:34 AM 60.8 °F 57.2 °F 88% 30.36 in 5.0 mi SSE 3.5 mph - N/A   Clear
4:54 AM 60.8 °F 57.2 °F 88% 30.37 in 5.0 mi Calm Calm - N/A   Clear
5:14 AM 59.0 °F 55.4 °F 88% 30.37 in 4.0 mi SSE 4.6 mph - N/A   Clear
5:34 AM 60.8 °F 57.2 °F 88% 30.37 in 7.0 mi SSE 4.6 mph - N/A   Clear
5:54 AM 60.8 °F 57.2 °F 88% 30.37 in 7.0 mi Calm Calm - N/A   Clear
6:15 AM 59.0 °F 55.4 °F 88% 30.38 in 4.0 mi Calm Calm - N/A   Clear
6:34 AM 57.2 °F 55.4 °F 94% 30.38 in 2.5 mi Calm Calm - N/A   Clear
7:14 AM 57.2 °F 55.4 °F 94% 30.39 in 4.0 mi Calm Calm - N/A   Clear
7:34 AM 59.0 °F 55.4 °F 88% 30.39 in 4.0 mi Calm Calm - N/A   Clear
7:54 AM 57.2 °F 55.4 °F 94% 30.40 in 1.5 mi Calm Calm - N/A   Mist
8:14 AM 57.2 °F 55.4 °F 94% 30.40 in 1.8 mi Calm Calm - N/A   Mist
8:53 AM 60.8 °F 59.0 °F 94% 30.41 in 7.0 mi Calm Calm - N/A   Clear
9:14 AM 62.6 °F 57.2 °F 82% 30.42 in 10.0 mi South 3.5 mph - N/A   Clear
9:34 AM 62.6 °F 57.2 °F 82% 30.42 in 10.0 mi South 3.5 mph - N/A   Clear
9:54 AM 64.4 °F 57.2 °F 77% 30.42 in 10.0 mi South 3.5 mph - N/A   Clear
10:14 AM 64.4 °F 57.2 °F 77% 30.42 in 10.0 mi South 4.6 mph - N/A   Clear
10:34 AM 64.4 °F 57.2 °F 77% 30.42 in 10.0 mi SSE 3.5 mph - N/A   Clear
10:54 AM 64.4 °F 57.2 °F 77% 30.42 in 10.0 mi South 4.6 mph - N/A   Clear
11:14 AM 64.4 °F 57.2 °F 77% 30.42 in 10.0 mi South 5.8 mph - N/A   Clear
11:34 AM 66.2 °F 57.2 °F 73% 30.41 in 10.0 mi South 5.8 mph - N/A   Clear
12:14 PM 66.2 °F 57.2 °F 73% 30.41 in 10.0 mi South 5.8 mph - N/A   Clear
12:34 PM 66.2 °F 55.4 °F 68% 30.40 in 10.0 mi South 4.6 mph - N/A   Clear
12:54 PM 66.2 °F 57.2 °F 73% 30.40 in 10.0 mi SSE 5.8 mph - N/A   Clear
1:14 PM 68.0 °F 57.2 °F 68% 30.39 in 10.0 mi SSE 6.9 mph - N/A   Clear
1:34 PM 68.0 °F 57.2 °F 68% 30.39 in 10.0 mi South 5.8 mph - N/A   Clear
1:54 PM 69.8 °F 57.2 °F 64% 30.38 in 10.0 mi SSE 4.6 mph - N/A   Clear
2:15 PM 69.8 °F 59.0 °F 68% 30.37 in 10.0 mi SSE 4.6 mph - N/A   Clear
2:34 PM 69.8 °F 57.2 °F 64% 30.37 in 10.0 mi SSE 5.8 mph - N/A   Clear
3:14 PM 69.8 °F 57.2 °F 64% 30.36 in 10.0 mi South 6.9 mph - N/A   Clear
3:34 PM 69.8 °F 57.2 °F 64% 30.36 in 10.0 mi SSE 5.8 mph - N/A   Clear
3:54 PM 71.6 °F 57.2 °F 60% 30.35 in 10.0 mi SE 3.5 mph - N/A   Clear
4:14 PM 71.6 °F 57.2 °F 60% 30.35 in 10.0 mi SSE 4.6 mph - N/A   Clear
4:34 PM 73.4 °F 59.0 °F 61% 30.34 in 10.0 mi SSE 4.6 mph - N/A   Clear
4:54 PM 73.4 °F 57.2 °F 57% 30.33 in 10.0 mi SSE 5.8 mph - N/A   Clear
5:14 PM 73.4 °F 57.2 °F 57% 30.33 in 10.0 mi SE 3.5 mph - N/A   Clear
5:34 PM 73.4 °F 57.2 °F 57% 30.34 in 10.0 mi Calm Calm - N/A   Clear
5:54 PM 73.4 °F 57.2 °F 57% 30.33 in 10.0 mi Calm Calm - N/A   Clear
6:14 PM 73.4 °F 57.2 °F 57% 30.34 in 10.0 mi Calm Calm - N/A   Clear
6:34 PM 69.8 °F 59.0 °F 68% 30.34 in 10.0 mi Calm Calm - N/A   Clear
6:54 PM 64.4 °F 59.0 °F 83% 30.34 in 10.0 mi Calm Calm - N/A   Clear
7:14 PM 64.4 °F 59.0 °F 83% 30.34 in 10.0 mi Calm Calm - N/A   Clear
7:35 PM 64.4 °F 57.2 °F 77% 30.35 in 10.0 mi Calm Calm - N/A   Clear
7:54 PM 66.2 °F 57.2 °F 73% 30.35 in 10.0 mi Calm Calm - N/A   Clear
8:34 PM 66.2 °F 55.4 °F 68% 30.35 in 10.0 mi Calm Calm - N/A   Clear
8:54 PM 64.4 °F 57.2 °F 77% 30.36 in 10.0 mi Calm Calm - N/A   Clear
9:14 PM 62.6 °F 55.4 °F 77% 30.36 in 10.0 mi Calm Calm - N/A   Clear
9:34 PM 62.6 °F 55.4 °F 77% 30.36 in 10.0 mi Calm Calm - N/A   Clear
9:54 PM 62.6 °F 55.4 °F 77% 30.36 in 10.0 mi Calm Calm - N/A   Clear
10:15 PM 62.6 °F 55.4 °F 77% 30.36 in 10.0 mi Calm Calm - N/A   Clear
10:34 PM 62.6 °F 55.4 °F 77% 30.36 in 10.0 mi Calm Calm - N/A   Clear
10:54 PM 62.6 °F 55.4 °F 77% 30.36 in 10.0 mi Calm Calm - N/A   Clear
11:14 PM 64.4 °F 57.2 °F 77% 30.36 in 10.0 mi Calm Calm - N/A   Clear
11:34 PM 64.4 °F 57.2 °F 77% 30.35 in 10.0 mi Calm Calm - N/A   Clear
11:54 PM 64.4 °F 60.8 °F 88% 30.35 in 10.0 mi South 3.5 mph - N/A   Clear